• In Deutschland
  • Länderverzeichnis
  • Für 7 Tage
  • Wassertemperatur
  • Satellitenkarten
  • Wetterkarte
  • Widgets
  • user-avatar
    Anmelden

    Stündliche Wetter Fuessen

    Heute, 26 April, Donnerstag

    Zeit Temperatur Niederschläge Wind Luftdruck Luftfeuchtigkeit
    00:00 +12°C° 0,6 mm 2 m/S 689 mmHg 97%
    01:00 +12°C° 0,6 mm 2 m/S 689 mmHg 97%
    02:00 +12°C° 0,7 mm 2 m/S 689 mmHg 97%
    03:00 +10°C° 0,7 mm 2 m/S 689 mmHg 97%
    04:00 +10°C° 0,7 mm 2 m/S 689 mmHg 97%
    05:00 +10°C° 0,7 mm 2 m/S 689 mmHg 97%
    06:00 +9°C° 0,7 mm 2 m/S 689 mmHg 97%
    07:00 +9°C° 0,7 mm 2 m/S 689 mmHg 97%
    08:00 +9°C° 0,6 mm 2 m/S 689 mmHg 96%
    09:00 +9°C° 0,6 mm 2 m/S 689 mmHg 95%
    10:00 +8°C° 0,6 mm 2 m/S 690 mmHg 94%
    11:00 +9°C° 0,3 mm 3 m/S 690 mmHg 91%
    12:00 +9°C° 0,3 mm 3 m/S 690 mmHg 88%
    13:00 +10°C° 0,3 mm 3 m/S 690 mmHg 85%
    14:00 +10°C° 0,2 mm 3 m/S 690 mmHg 82%
    15:00 +12°C° 0,2 mm 2 m/S 690 mmHg 78%
    16:00 +12°C° 0,2 mm 2 m/S 689 mmHg 75%
    17:00 +10°C° 0,1 mm 2 m/S 689 mmHg 78%
    18:00 +11°C° 0,1 mm 1 m/S 690 mmHg 82%
    19:00 +10°C° 0,1 mm 1 m/S 690 mmHg 86%
    20:00 +9°C° 0 mm 1 m/S 690 mmHg 87%
    21:00 +8°C° 0 mm 1 m/S 690 mmHg 89%
    22:00 +6°C° 0 mm 0 m/S 690 mmHg 91%
    23:00 +7°C° 0 mm 1 m/S 690 mmHg 91%

    Morgen, 27 April, Freitag

    Zeit Temperatur Niederschläge Wind Luftdruck Luftfeuchtigkeit
    00:00 +7°C° 0 mm 1 m/S 690 mmHg 92%
    01:00 +6°C° 0 mm 1 m/S 690 mmHg 92%
    02:00 +6°C° 0 mm 1 m/S 689 mmHg 92%
    03:00 +6°C° 0 mm 1 m/S 688 mmHg 92%
    04:00 +6°C° 0 mm 1 m/S 688 mmHg 92%
    05:00 +7°C° 0 mm 1 m/S 688 mmHg 89%
    06:00 +7°C° 0 mm 2 m/S 688 mmHg 86%
    07:00 +9°C° 0 mm 2 m/S 687 mmHg 83%
    08:00 +12°C° 0 mm 2 m/S 687 mmHg 74%
    09:00 +15°C° 0 mm 2 m/S 687 mmHg 65%
    10:00 +18°C° 0 mm 2 m/S 688 mmHg 57%
    11:00 +19°C° 0 mm 2 m/S 688 mmHg 55%
    12:00 +20°C° 0 mm 2 m/S 687 mmHg 53%
    13:00 +21°C° 0 mm 2 m/S 687 mmHg 51%
    14:00 +21°C° 0,2 mm 2 m/S 687 mmHg 55%
    15:00 +20°C° 0,2 mm 2 m/S 687 mmHg 60%
    16:00 +19°C° 0,2 mm 2 m/S 686 mmHg 65%
    17:00 +18°C° 0,6 mm 2 m/S 686 mmHg 73%
    18:00 +16°C° 0,6 mm 1 m/S 686 mmHg 80%
    19:00 +14°C° 0,6 mm 1 m/S 686 mmHg 88%
    20:00 +14°C° 0,4 mm 1 m/S 687 mmHg 90%
    21:00 +13°C° 0,4 mm 2 m/S 687 mmHg 91%
    22:00 +12°C° 0,4 mm 2 m/S 688 mmHg 93%
    23:00 +12°C° 0,1 mm 2 m/S 688 mmHg 93%

    übermorgen, 28 April, Samstag

    Zeit Temperatur Niederschläge Wind Luftdruck Luftfeuchtigkeit
    00:00 +12°C° 0,1 mm 1 m/S 688 mmHg 93%
    01:00 +11°C° 0,1 mm 1 m/S 688 mmHg 94%
    02:00 +11°C° 0,1 mm 1 m/S 688 mmHg 94%
    03:00 +11°C° 0,1 mm 1 m/S 688 mmHg 93%
    04:00 +11°C° 0,1 mm 1 m/S 688 mmHg 93%
    05:00 +11°C° 0,2 mm 1 m/S 688 mmHg 93%
    06:00 +11°C° 0,2 mm 1 m/S 688 mmHg 93%
    07:00 +11°C° 0,2 mm 1 m/S 688 mmHg 93%
    08:00 +12°C° 0,1 mm 1 m/S 688 mmHg 91%
    09:00 +12°C° 0,1 mm 1 m/S 688 mmHg 89%
    10:00 +13°C° 0,1 mm 1 m/S 688 mmHg 86%
    11:00 +14°C° 0 mm 1 m/S 688 mmHg 82%
    12:00 +15°C° 0 mm 2 m/S 688 mmHg 77%
    13:00 +16°C° 0 mm 2 m/S 688 mmHg 73%
    14:00 +16°C° 0 mm 2 m/S 687 mmHg 73%
    15:00 +16°C° 0 mm 2 m/S 687 mmHg 73%
    16:00 +16°C° 0 mm 2 m/S 687 mmHg 73%
    17:00 +15°C° 0 mm 2 m/S 686 mmHg 79%
    18:00 +14°C° 0 mm 2 m/S 686 mmHg 84%
    19:00 +13°C° 0 mm 2 m/S 686 mmHg 90%
    20:00 +13°C° 0 mm 2 m/S 686 mmHg 91%
    21:00 +12°C° 0 mm 2 m/S 686 mmHg 93%
    22:00 +12°C° 0 mm 2 m/S 687 mmHg 95%
    23:00 +10°C° 0 mm 2 m/S 686 mmHg 95%

    29 April, Sonntag

    Zeit Temperatur Niederschläge Wind Luftdruck Luftfeuchtigkeit
    00:00 +10°C° 0 mm 2 m/S 686 mmHg 94%
    01:00 +9°C° 0 mm 2 m/S 685 mmHg 94%
    02:00 +9°C° 0 mm 2 m/S 685 mmHg 93%
    03:00 +9°C° 0 mm 2 m/S 685 mmHg 92%
    04:00 +9°C° 0 mm 2 m/S 684 mmHg 91%
    05:00 +10°C° 0 mm 2 m/S 684 mmHg 87%
    06:00 +12°C° 0 mm 2 m/S 684 mmHg 83%
    07:00 +13°C° 0 mm 2 m/S 684 mmHg 78%
    08:00 +15°C° 0 mm 2 m/S 685 mmHg 69%
    09:00 +18°C° 0 mm 2 m/S 685 mmHg 59%
    10:00 +20°C° 0 mm 2 m/S 685 mmHg 49%
    11:00 +23°C° 0 mm 2 m/S 685 mmHg 46%
    12:00 +24°C° 0 mm 2 m/S 684 mmHg 42%
    13:00 +25°C° 0 mm 3 m/S 684 mmHg 39%
    14:00 +25°C° 0 mm 3 m/S 683 mmHg 40%
    15:00 +24°C° 0 mm 3 m/S 683 mmHg 41%
    16:00 +24°C° 0 mm 3 m/S 682 mmHg 42%
    17:00 +21°C° 0,1 mm 3 m/S 682 mmHg 50%
    18:00 +19°C° 0,1 mm 3 m/S 682 mmHg 59%
    19:00 +17°C° 0,1 mm 2 m/S 681 mmHg 67%
    20:00 +16°C° 0 mm 3 m/S 681 mmHg 70%
    21:00 +13°C° 0 mm 3 m/S 682 mmHg 74%
    22:00 +12°C° 0 mm 3 m/S 682 mmHg 77%
    23:00 +11°C° 0 mm 3 m/S 682 mmHg 82%

    30 April, Montag

    Zeit Temperatur Niederschläge Wind Luftdruck Luftfeuchtigkeit
    00:00 +10°C° 0 mm 3 m/S 682 mmHg 87%
    01:00 +10°C° 0 mm 2 m/S 682 mmHg 92%
    02:00 +9°C° 0,5 mm 3 m/S 682 mmHg 93%
    03:00 +9°C° 0,5 mm 3 m/S 682 mmHg 94%
    04:00 +8°C° 0,5 mm 3 m/S 682 mmHg 96%
    05:00 +7°C° 3,2 mm 3 m/S 683 mmHg 96%
    06:00 +7°C° 3,2 mm 3 m/S 683 mmHg 96%
    07:00 +5°C° 3,2 mm 3 m/S 683 mmHg 96%
    08:00 +5°C° 1,2 mm 3 m/S 684 mmHg 94%
    09:00 +5°C° 1,2 mm 3 m/S 685 mmHg 92%
    10:00 +7°C° 1,2 mm 3 m/S 685 mmHg 90%
    11:00 +8°C° 0,1 mm 3 m/S 686 mmHg 82%
    12:00 +10°C° 0,1 mm 2 m/S 686 mmHg 74%
    13:00 +13°C° 0,1 mm 2 m/S 686 mmHg 66%
    14:00 +13°C° 0,1 mm 2 m/S 686 mmHg 65%
    15:00 +13°C° 0,1 mm 2 m/S 686 mmHg 64%
    16:00 +13°C° 0,1 mm 2 m/S 686 mmHg 63%
    17:00 +12°C° 0,3 mm 2 m/S 686 mmHg 70%
    18:00 +11°C° 0,3 mm 1 m/S 686 mmHg 78%
    19:00 +10°C° 0,3 mm 1 m/S 686 mmHg 85%
    20:00 +9°C° 0,6 mm 1 m/S 686 mmHg 88%
    21:00 +8°C° 0,6 mm 1 m/S 687 mmHg 91%
    22:00 +8°C° 0,6 mm 1 m/S 687 mmHg 94%
    23:00 +8°C° 0,2 mm 1 m/S 687 mmHg 94%

    1 Mai, Dienstag

    Zeit Temperatur Niederschläge Wind Luftdruck Luftfeuchtigkeit
    00:00 +7°C° 0,2 mm 1 m/S 687 mmHg 94%
    01:00 +7°C° 0,2 mm 1 m/S 687 mmHg 94%
    02:00 +7°C° 0,1 mm 1 m/S 687 mmHg 94%
    03:00 +6°C° 0,1 mm 1 m/S 687 mmHg 93%
    04:00 +6°C° 0,1 mm 1 m/S 687 mmHg 93%
    05:00 +7°C° 0 mm 1 m/S 687 mmHg 92%
    06:00 +8°C° 0 mm 1 m/S 688 mmHg 91%
    07:00 +8°C° 0 mm 1 m/S 688 mmHg 89%
    08:00 +10°C° 0 mm 1 m/S 688 mmHg 82%
    09:00 +12°C° 0 mm 1 m/S 688 mmHg 74%
    10:00 +14°C° 0 mm 2 m/S 688 mmHg 66%
    11:00 +15°C° 0,1 mm 2 m/S 688 mmHg 65%
    12:00 +15°C° 0,1 mm 2 m/S 688 mmHg 64%
    13:00 +16°C° 0,1 mm 2 m/S 687 mmHg 62%
    14:00 +15°C° 0,3 mm 2 m/S 687 mmHg 66%
    15:00 +15°C° 0,3 mm 2 m/S 687 mmHg 70%
    16:00 +15°C° 0,3 mm 2 m/S 686 mmHg 73%
    17:00 +14°C° 0,4 mm 2 m/S 686 mmHg 79%
    18:00 +12°C° 0,4 mm 2 m/S 686 mmHg 84%
    19:00 +11°C° 0,4 mm 1 m/S 686 mmHg 90%
    20:00 +11°C° 0,4 mm 1 m/S 686 mmHg 92%
    21:00 +10°C° 0,4 mm 1 m/S 686 mmHg 93%
    22:00 +8°C° 0,4 mm 2 m/S 686 mmHg 95%
    23:00 +9°C° 0,3 mm 1 m/S 686 mmHg 95%
    Mehr zeigen